Regional Weather Roundup
Issued by NWS

Home | Current Version | Previous Version | Graphics & Text | Print | Product List | Glossary On
Versions: 1 2 3 4 5 6 7 8 9 10 11 12 13 14 15 16 17 18 19 20 21 22 23 24 25 26 27 28 29 30 31 32 33 34 35 36 37 38 39 40 41 42 43 44 45 46 47 48 49 50
000
ASUS45 KTFX 300519
RWRMT
MONTANA HOURLY WEATHER ROUNDUP
NATIONAL WEATHER SERVICE GREAT FALLS MT
1119 PM MDT TUE JUL 29 2014

NOTE: "FAIR" INDICATES FEW OR NO CLOUDS BELOW 12000 FEET WITH NO
SIGNIFICANT WEATHER AND/OR OBSTRUCTIONS TO VISIBILITY.

* THESE STATIONS ARE NOT UNDER NWS QUALITY CONTROL. THEY DO NOT
   REPORT WEATHER SUCH AS PRECIPITATION OR FOG.

MTZ001>007-043-300600-
WEST OF THE DIVIDE
CITY           SKY/WX    TMP DP  RH WIND       PRES   REMARKS
KALISPELL      CLEAR     75  46  36 N8        30.09R
MISSOULA       PTCLDY    75  36  24 NW7       30.10R
BUTTE          CLOUDY    68  45  44 S8        30.28S
MULLAN PASS    CLEAR     72  36  27 NW6       30.30R
* LINCOLN      N/A       65  48  54 NE1G6      N/A
* LOOKOUT PASS N/A       69  45  42 N2         N/A
* POLSON       N/A       72  42  34 NE2        N/A
* RONAN APT    PTCLDY    75  48  39 N/A        N/A
* SEELEY LAKE  N/A       69  48  47 NE3        N/A
* THOMP F APT  PTCLDY    58  47  67 N7         N/A
* YAAK HILL    N/A       73  47  40 E1         N/A
$$

MTZ008-052>055-300600-
SOUTHWEST MONTANA
CITY           SKY/WX    TMP DP  RH WIND       PRES   REMARKS
BOZEMAN        PTCLDY    70  46  42 VRB3      30.21S
DILLON         MOCLDY    66  46  49 SE7       30.26R
W YELLOWSTONE  CLOUDY    50  50 100 CALM      30.39S
* THREE FORKS  PTCLDY    70  55  59 N/A        N/A
* BOULDER HILL N/A       68  40  36 SW5        N/A
* MONIDA PASS  N/A       57  48  72 W3         N/A
* RAYNOLDS PAS N/A       51  25  36 E2         N/A
* WHITEHALL    N/A       72  46  40 N4G10      N/A
* WISE RIVER   N/A       69  43  39 SE6G18     N/A
$$

MTZ009>010-012-014-046-048-049-054-300600-
EAST SLOPES AND CENTRAL MONTANA
CITY           SKY/WX    TMP DP  RH WIND       PRES   REMARKS
CUT BANK       CLEAR     72  41  33 SE6       30.17S
GREAT FALLS    MOCLDY    72  43  35 SE6       30.15S
HELENA         MOCLDY    73  46  38 CALM      30.16S
MALMSTROM AFB  PTCLDY    70  43  38 SE8       30.16S
* CONRAD       PTCLDY    63  52  68 N/A        N/A
* DEARBORN     N/A       73  47  40 E1         N/A
* EAST GLACIER N/A       62  50  65 NW8        N/A
* MONARCH      N/A       62  39  43 E3         N/A
* ROGERS PASS  N/A       66  42  42 NW2        N/A
* SAINT MARY   N/A       58  50  75 SE3        N/A
* SWEET GRASS  N/A       71  38  30 S9         N/A
* WHITE SULPH  N/A       66  43  43 NE6        N/A
$$

MTZ011-013-016-021-035-040-045-047-050-051-300600-
NORTH CENTRAL MONTANA
CITY           SKY/WX    TMP DP  RH WIND       PRES   REMARKS
HAVRE          CLEAR     79  45  30 SE14      30.13R
LEWISTOWN      CLEAR     66  43  43 E12       30.22S
* FORT BENTON  PTCLDY    75  39  27 NE6       30.13R
* CHESTER      N/A       76  42  30 E8G14      N/A
* DENTON       N/A       67  41  39 S6         N/A
* GEYSER       N/A       67  45  45 SE9        N/A
* JUDITH GAP   N/A       71  41  34 E11        N/A
* LOMA         N/A       74  42  32 NE12       N/A
$$

MTZ017>020-022>027-061-062-300600-
NORTHEAST MONTANA
CITY           SKY/WX    TMP DP  RH WIND       PRES   REMARKS
GLASGOW        CLEAR     68  50  53 E10       30.16S
GLENDIVE       CLEAR     66  48  52 N8        30.19F
JORDAN         CLEAR     70  43  38 VRB3      30.18R
SIDNEY         CLEAR     64  54  70 NW5       30.18S
WOLF POINT     CLEAR     66  52  61 E5        30.17S
* BEAVER HILL  N/A       66  50  56 NE2        N/A
* CIRCLE       N/A       69  51  53 N2         N/A
* LINDSAY DVD  N/A       63  50  63 NE3G8      N/A
$$

MTZ028>042-056>058-300600-
SOUTHCENTRAL AND SOUTHEAST MONTANA
CITY           SKY/WX    TMP DP  RH WIND       PRES   REMARKS
BAKER          CLEAR     63  46  54 CALM      30.20S
BILLINGS       PTCLDY    75  48  39 S5        30.20S
LIVINGSTON     MOCLDY    70  45  41 SE7       30.22S
MILES CITY     CLEAR     70  43  38 NE10      30.17S
* LAUREL APT   PTCLDY    66  50  56 N/A        N/A
* ROUNDUP APT  CLEAR     73  37  27 N/A        N/A
* ALZADA       N/A       63  52  68 E2         N/A
* HYSHAM       N/A       72  42  34 E6G11      N/A
* LAME DEER    N/A       71  41  34 NE8        N/A
* REED POINT   N/A       71  53  53 NE8        N/A
* ROSCOE HILL  N/A       63  48  58 E8         N/A
$$

REGIONAL REPORTS...DAKOTAS
CITY           SKY/WX    TMP DP  RH WIND       PRES   REMARKS
WILLISTON      CLEAR     68  59  73 N6        30.17S
DICKINSON      CLEAR     61  55  81 E6        30.17S
CROSBY         N/A       55  55 100 CALM      30.19S
TIOGA          CLEAR     55  55 100 CALM      30.21F
WATFORD CITY   CLEAR     63  59  87 E3        30.16S
BISMARCK       PTCLDY    64  57  78 NE6       30.16S
GRAND FORKS    CLEAR     57  55  93 W5        30.10S
FARGO          CLEAR     61  54  78 CALM      30.11S
BUFFALO SD     PTCLDY    64  52  65 W13       30.12S
RAPID CITY     PTCLDY    61  54  78 SW6       30.21F
$$

REGIONAL REPORTS...WYOMING/IDAHO/WASHINGTON
CITY           SKY/WX    TMP DP  RH WIND       PRES   REMARKS
GILLETTE       PTCLDY    61  55  81 SW9       30.26S
SHERIDAN       MOCLDY    55  50  83 CALM      30.23S
YELLOWSTONE LA PTCLDY    46  45  96 CALM      30.47R
SALMON         CLOUDY    70  50  49 CALM      30.17R
MULLAN PASS    CLEAR     72  36  27 NW6       30.30S
SAND POINT     CLEAR     64  50  61 CALM      30.00S
SPOKANE        PTCLDY    86  39  19 SW9       30.01R
$$

REGIONAL REPORTS...ALBERTA
CITY           SKY/WX    TMP DP  RH WIND       PRES   REMARKS
CALGARY        MOCLDY    79  54  42 SW17      30.14R
LETHBRIDGE     CLEAR     63  57  81 S9        30.11S
MEDICINE HAT   CLEAR     72  50  46 S5        30.09S
EDMONTON       MOCLDY    66  64  93 CALM      30.09R
WATERTON GATE  N/A       63  45  52 SW5        N/A
CARDSTON       N/A       63  52  68 S6         N/A
MILK RIVER     N/A       61  48  62 W1         N/A
$$

REGIONAL REPORTS...SASKATCHEWAN
CITY           SKY/WX    TMP DP  RH WIND       PRES   REMARKS
SWIFT CURRENT  CLEAR     59  55  87 SE10      30.16S
REGINA         N/A       64  59  84 SE5       30.18S
VAL MARIE      N/A       61  54  78 NE8        N/A
ASSINIBOIA     N/A       64  57  78 SE6        N/A
CORONACH       N/A       54  52  93 W2         N/A

$$




USA.gov is the U.S. government's official web portal to all federal, state and local government web resources and services.